Time,TemperatureF,DewpointF,PressureIn,WindDirection,WindDirectionDegrees,WindSpeedMPH,WindSpeedGustMPH,Humidity,HourlyPrecipIn,Conditions,Clouds,dailyrainin,SoftwareType,DateUTC
2013-04-22 00:02:00,44.0,42.0,-100.00,NNW,335,16.0,21.0,94,-99.99,,,-99.99,,2013-04-22 06:02:00,
2013-04-22 00:12:00,44.0,42.0,-100.00,NNW,335,14.0,20.0,94,-99.99,,,-99.99,,2013-04-22 06:12:00,
2013-04-22 00:21:00,43.0,42.0,-100.00,NNW,335,15.0,19.0,94,-99.99,,,-99.99,,2013-04-22 06:21:00,
2013-04-22 00:32:00,43.0,42.0,-100.00,NNW,340,15.0,21.0,94,-99.99,,,-99.99,,2013-04-22 06:32:00,
2013-04-22 00:42:00,43.0,42.0,-100.00,NNW,335,17.0,25.0,94,-99.99,,,-99.99,,2013-04-22 06:42:00,
2013-04-22 00:52:00,43.0,41.0,-100.00,NNW,340,16.0,21.0,94,-99.99,,,-99.99,,2013-04-22 06:52:00,
2013-04-22 01:01:00,43.0,41.0,-100.00,NNW,340,16.0,21.0,94,-99.99,,,-99.99,,2013-04-22 07:01:00,
2013-04-22 01:12:00,43.0,41.0,-100.00,NNW,340,16.0,21.0,94,-99.99,,,-99.99,,2013-04-22 07:12:00,
2013-04-22 01:21:00,43.0,41.0,-100.00,NNW,340,16.0,21.0,94,-99.99,,,-99.99,,2013-04-22 07:21:00,
2013-04-22 01:32:00,43.0,41.0,-100.00,NNW,340,16.0,21.0,94,-99.99,,,-99.99,,2013-04-22 07:32:00,
2013-04-22 01:42:00,43.0,41.0,-100.00,NNW,340,16.0,21.0,94,-99.99,,,-99.99,,2013-04-22 07:42:00,
2013-04-22 01:52:00,42.0,41.0,-100.00,NNW,340,16.0,19.0,94,-99.99,,,-99.99,,2013-04-22 07:52:00,
2013-04-22 02:02:00,42.0,41.0,-100.00,NNW,340,16.0,19.0,94,-99.99,,,-99.99,,2013-04-22 08:02:00,
2013-04-22 02:11:00,42.0,41.0,-100.00,NNW,340,12.0,17.0,94,-99.99,,,-99.99,,2013-04-22 08:11:00,
2013-04-22 02:22:00,42.0,41.0,-100.00,NNW,340,9.0,14.0,94,-99.99,,,-99.99,,2013-04-22 08:22:00,
2013-04-22 02:32:00,42.0,41.0,-100.00,NNW,340,9.0,14.0,94,-99.99,,,-99.99,,2013-04-22 08:32:00,
2013-04-22 02:42:00,42.0,41.0,-100.00,NNW,340,9.0,14.0,94,-99.99,,,-99.99,,2013-04-22 08:42:00,
2013-04-22 02:52:00,42.0,41.0,-100.00,NNW,340,9.0,14.0,94,-99.99,,,-99.99,,2013-04-22 08:52:00,
2013-04-22 03:33:00,41.0,41.0,-100.00,North,350,9.0,13.0,97,-99.99,,,-99.99,,2013-04-22 09:33:00,
2013-04-22 03:42:00,41.0,41.0,-100.00,North,350,9.0,13.0,97,-99.99,,,-99.99,,2013-04-22 09:42:00,
2013-04-22 03:52:00,41.0,41.0,-100.00,North,350,9.0,13.0,97,-99.99,,,-99.99,,2013-04-22 09:52:00,
2013-04-22 04:03:00,41.0,41.0,-100.00,North,350,9.0,13.0,97,-99.99,,,-99.99,,2013-04-22 10:03:00,
2013-04-22 04:22:00,42.0,41.0,-100.00,North,350,4.0,10.0,97,-99.99,,,-99.99,,2013-04-22 10:22:00,
2013-04-22 04:32:00,42.0,41.0,-100.00,North,350,4.0,10.0,97,-99.99,,,-99.99,,2013-04-22 10:32:00,
2013-04-22 04:42:00,42.0,41.0,-100.00,North,350,9.0,13.0,97,-99.99,,,-99.99,,2013-04-22 10:42:00,
2013-04-22 04:52:00,42.0,41.0,-100.00,North,350,6.0,12.0,97,-99.99,,,-99.99,,2013-04-22 10:52:00,
2013-04-22 05:02:00,42.0,41.0,-100.00,North,350,4.0,12.0,97,-99.99,,,-99.99,,2013-04-22 11:02:00,
2013-04-22 05:12:00,42.0,41.0,-100.00,North,350,4.0,12.0,97,-99.99,,,-99.99,,2013-04-22 11:12:00,
2013-04-22 05:22:00,42.0,41.0,-100.00,North,350,4.0,12.0,97,-99.99,,,-99.99,,2013-04-22 11:22:00,
2013-04-22 05:32:00,42.0,41.0,-100.00,North,350,4.0,12.0,97,-99.99,,,-99.99,,2013-04-22 11:32:00,
2013-04-22 06:12:00,41.0,41.0,-100.00,North,350,13.0,17.0,97,-99.99,,,-99.99,,2013-04-22 12:12:00,
2013-04-22 06:21:00,41.0,41.0,-100.00,North,350,13.0,17.0,97,-99.99,,,-99.99,,2013-04-22 12:21:00,
2013-04-22 06:32:00,41.0,41.0,-100.00,North,350,11.0,14.0,97,-99.99,,,-99.99,,2013-04-22 12:32:00,
2013-04-22 06:42:00,41.0,41.0,-100.00,North,350,12.0,16.0,97,-99.99,,,-99.99,,2013-04-22 12:42:00,
2013-04-22 06:52:00,41.0,41.0,-100.00,North,350,2.0,11.0,97,-99.99,,,-99.99,,2013-04-22 12:52:00,
2013-04-22 07:01:00,41.0,41.0,-100.00,North,350,8.0,12.0,97,-99.99,,,-99.99,,2013-04-22 13:01:00,
2013-04-22 07:11:00,41.0,41.0,-100.00,North,350,8.0,12.0,97,-99.99,,,-99.99,,2013-04-22 13:11:00,
2013-04-22 07:22:00,41.0,41.0,-100.00,North,350,8.0,12.0,97,-99.99,,,-99.99,,2013-04-22 13:22:00,
2013-04-22 07:32:00,42.0,41.0,-100.00,North,350,14.0,17.0,97,-99.99,,,-99.99,,2013-04-22 13:32:00,
2013-04-22 07:42:00,42.0,41.0,-100.00,North,350,12.0,19.0,97,-99.99,,,-99.99,,2013-04-22 13:42:00,
2013-04-22 07:53:00,42.0,41.0,-100.00,North,350,12.0,19.0,97,-99.99,,,-99.99,,2013-04-22 13:53:00,
2013-04-22 08:02:00,42.0,41.0,-100.00,North,350,8.0,10.0,97,-99.99,,,-99.99,,2013-04-22 14:02:00,
2013-04-22 08:11:00,42.0,42.0,-100.00,NNW,345,8.0,9.0,96,-99.99,,,-99.99,,2013-04-22 14:11:00,
2013-04-22 08:21:00,43.0,42.0,-100.00,NNW,340,9.0,12.0,95,-99.99,,,-99.99,,2013-04-22 14:21:00,
2013-04-22 08:33:00,43.0,41.0,-100.00,NNW,340,7.0,12.0,94,-99.99,,,-99.99,,2013-04-22 14:33:00,
2013-04-22 08:42:00,43.0,42.0,-100.00,NNW,340,7.0,9.0,94,-99.99,,,-99.99,,2013-04-22 14:42:00,
2013-04-22 08:52:00,44.0,42.0,-100.00,NNW,335,4.0,9.0,94,-99.99,,,-99.99,,2013-04-22 14:52:00,
2013-04-22 09:02:00,44.0,42.0,-100.00,NNW,335,11.0,13.0,93,-99.99,,,-99.99,,2013-04-22 15:02:00,
2013-04-22 09:12:00,43.0,42.0,-100.00,NNW,335,12.0,17.0,93,-99.99,,,-99.99,,2013-04-22 15:12:00,
2013-04-22 09:22:00,44.0,42.0,-100.00,NNW,335,13.0,17.0,93,-99.99,,,-99.99,,2013-04-22 15:22:00,
2013-04-22 09:33:00,44.0,42.0,-100.00,NNW,335,14.0,16.0,93,-99.99,,,-99.99,,2013-04-22 15:33:00,
2013-04-22 09:43:00,44.0,42.0,-100.00,NNW,335,14.0,16.0,93,-99.99,,,-99.99,,2013-04-22 15:43:00,
2013-04-22 09:53:00,44.0,42.0,-100.00,NNW,335,14.0,16.0,93,-99.99,,,-99.99,,2013-04-22 15:53:00,
2013-04-22 10:03:00,44.0,42.0,-100.00,NNW,335,14.0,16.0,93,-99.99,,,-99.99,,2013-04-22 16:03:00,
2013-04-22 10:12:00,44.0,42.0,-100.00,NNW,335,14.0,16.0,93,-99.99,,,-99.99,,2013-04-22 16:12:00,
2013-04-22 10:23:00,44.0,42.0,-100.00,NNW,335,13.0,18.0,93,-99.99,,,-99.99,,2013-04-22 16:23:00,
2013-04-22 10:33:00,44.0,42.0,-100.00,NNW,335,14.0,18.0,93,-99.99,,,-99.99,,2013-04-22 16:33:00,
2013-04-22 10:42:00,44.0,42.0,-100.00,NNW,335,14.0,18.0,93,-99.99,,,-99.99,,2013-04-22 16:42:00,
2013-04-22 10:52:00,44.0,42.0,-100.00,NNW,335,14.0,18.0,93,-99.99,,,-99.99,,2013-04-22 16:52:00,
2013-04-22 11:02:00,40.0,39.0,-100.00,NNW,345,22.0,26.0,96,-99.99,,,-99.99,,2013-04-22 17:02:00,
2013-04-22 11:12:00,38.0,37.0,-100.00,North,350,24.0,30.0,97,-99.99,,,-99.99,,2013-04-22 17:12:00,
2013-04-22 11:22:00,36.0,35.0,-100.00,North,350,27.0,34.0,97,-99.99,,,-99.99,,2013-04-22 17:22:00,
2013-04-22 11:32:00,33.0,33.0,-100.00,North,350,31.0,35.0,97,-99.99,,,-99.99,,2013-04-22 17:32:00,
2013-04-22 11:42:00,32.0,31.0,-100.00,NNW,345,27.0,37.0,96,-99.99,,,-99.99,,2013-04-22 17:42:00,
2013-04-22 11:52:00,31.0,30.0,-100.00,NNW,340,30.0,37.0,95,-99.99,,,-99.99,,2013-04-22 17:52:00,
2013-04-22 12:01:00,31.0,29.0,-100.00,NNW,335,32.0,39.0,93,-99.99,,,-99.99,,2013-04-22 18:01:00,
2013-04-22 12:12:00,30.0,29.0,-100.00,NNW,330,32.0,38.0,92,-99.99,,,-99.99,,2013-04-22 18:12:00,
2013-04-22 12:21:00,30.0,28.0,-100.00,NW,325,30.0,39.0,91,-99.99,,,-99.99,,2013-04-22 18:21:00,
2013-04-22 12:32:00,30.0,28.0,-100.00,NW,325,31.0,38.0,91,-99.99,,,-99.99,,2013-04-22 18:32:00,
2013-04-22 12:42:00,29.0,27.0,-100.00,NW,325,30.0,38.0,91,-99.99,,,-99.99,,2013-04-22 18:42:00,
2013-04-22 12:52:00,29.0,26.0,-100.00,NW,315,33.0,40.0,87,-99.99,,,-99.99,,2013-04-22 18:52:00,
2013-04-22 13:01:00,29.0,26.0,-100.00,NW,310,31.0,37.0,87,-99.99,,,-99.99,,2013-04-22 19:01:00,
2013-04-22 13:12:00,29.0,26.0,-100.00,NW,310,30.0,39.0,87,-99.99,,,-99.99,,2013-04-22 19:12:00,
2013-04-22 13:22:00,31.0,27.0,-100.00,WNW,300,27.0,38.0,84,-99.99,,,-99.99,,2013-04-22 19:22:00,
2013-04-22 13:32:00,30.0,25.0,-100.00,WNW,290,27.0,37.0,81,-99.99,,,-99.99,,2013-04-22 19:32:00,
2013-04-22 13:42:00,30.0,25.0,-100.00,WNW,285,29.0,39.0,80,-99.99,,,-99.99,,2013-04-22 19:42:00,
2013-04-22 13:52:00,30.0,25.0,-100.00,West,275,27.0,37.0,79,-99.99,,,-99.99,,2013-04-22 19:52:00,
2013-04-22 14:02:00,31.0,25.0,-100.00,West,280,24.0,34.0,79,-99.99,,,-99.99,,2013-04-22 20:02:00,
2013-04-22 14:11:00,31.0,25.0,-100.00,West,275,25.0,34.0,78,-99.99,,,-99.99,,2013-04-22 20:11:00,
2013-04-22 14:22:00,30.0,24.0,-100.00,West,270,24.0,33.0,78,-99.99,,,-99.99,,2013-04-22 20:22:00,
2013-04-22 14:32:00,31.0,24.0,-100.00,West,265,29.0,34.0,76,-99.99,,,-99.99,,2013-04-22 20:32:00,
2013-04-22 14:42:00,30.0,24.0,-100.00,West,265,27.0,35.0,76,-99.99,,,-99.99,,2013-04-22 20:42:00,
2013-04-22 14:52:00,30.0,24.0,-100.00,West,265,24.0,32.0,76,-99.99,,,-99.99,,2013-04-22 20:52:00,
2013-04-22 15:02:00,30.0,23.0,-100.00,West,265,24.0,34.0,75,-99.99,,,-99.99,,2013-04-22 21:02:00,
2013-04-22 15:11:00,30.0,23.0,-100.00,West,260,25.0,31.0,75,-99.99,,,-99.99,,2013-04-22 21:11:00,
2013-04-22 15:21:00,30.0,23.0,-100.00,West,260,26.0,33.0,75,-99.99,,,-99.99,,2013-04-22 21:21:00,
2013-04-22 15:32:00,29.0,22.0,-100.00,WSW,255,31.0,35.0,73,-99.99,,,-99.99,,2013-04-22 21:32:00,
2013-04-22 15:43:00,29.0,22.0,-100.00,WSW,250,27.0,35.0,72,-99.99,,,-99.99,,2013-04-22 21:43:00,
2013-04-22 15:53:00,30.0,22.0,-100.00,WSW,250,25.0,32.0,72,-99.99,,,-99.99,,2013-04-22 21:53:00,
2013-04-22 16:03:00,30.0,22.0,-100.00,WSW,245,26.0,33.0,71,-99.99,,,-99.99,,2013-04-22 22:03:00,
2013-04-22 16:12:00,29.0,21.0,-100.00,WSW,240,24.0,32.0,70,-99.99,,,-99.99,,2013-04-22 22:12:00,
2013-04-22 16:22:00,30.0,21.0,-100.00,WSW,245,25.0,33.0,70,-99.99,,,-99.99,,2013-04-22 22:22:00,
2013-04-22 16:33:00,30.0,20.0,-100.00,SW,235,23.0,32.0,68,-99.99,,,-99.99,,2013-04-22 22:33:00,
2013-04-22 16:42:00,30.0,20.0,-100.00,SW,230,22.0,31.0,67,-99.99,,,-99.99,,2013-04-22 22:42:00,
2013-04-22 16:52:00,30.0,21.0,-100.00,SW,235,22.0,28.0,68,-99.99,,,-99.99,,2013-04-22 22:52:00,
2013-04-22 17:02:00,30.0,20.0,-100.00,SW,225,24.0,32.0,65,-99.99,,,-99.99,,2013-04-22 23:02:00,
2013-04-22 17:11:00,30.0,20.0,-100.00,SW,220,24.0,32.0,65,-99.99,,,-99.99,,2013-04-22 23:11:00,
2013-04-22 17:21:00,30.0,20.0,-100.00,SW,220,21.0,32.0,65,-99.99,,,-99.99,,2013-04-22 23:21:00,
2013-04-22 17:33:00,30.0,20.0,-100.00,SW,220,22.0,30.0,65,-99.99,,,-99.99,,2013-04-22 23:33:00,
2013-04-22 17:42:00,30.0,20.0,-100.00,SW,220,19.0,29.0,65,-99.99,,,-99.99,,2013-04-22 23:42:00,
2013-04-22 17:52:00,30.0,20.0,-100.00,SW,220,17.0,27.0,65,-99.99,,,-99.99,,2013-04-22 23:52:00,
2013-04-22 18:02:00,30.0,20.0,-100.00,SW,225,20.0,25.0,65,-99.99,,,-99.99,,2013-04-23 00:02:00,
2013-04-22 18:12:00,30.0,19.0,-100.00,SW,220,16.0,27.0,65,-99.99,,,-99.99,,2013-04-23 00:12:00,
2013-04-22 18:21:00,29.0,19.0,-100.00,SW,220,24.0,27.0,64,-99.99,,,-99.99,,2013-04-23 00:21:00,
2013-04-22 18:32:00,29.0,19.0,-100.00,SW,220,19.0,28.0,64,-99.99,,,-99.99,,2013-04-23 00:32:00,
2013-04-22 18:42:00,28.0,20.0,-100.00,WSW,245,19.0,26.0,71,-99.99,,,-99.99,,2013-04-23 00:42:00,
2013-04-22 18:51:00,29.0,20.0,-100.00,WSW,240,23.0,28.0,69,-99.99,,,-99.99,,2013-04-23 00:51:00,
2013-04-22 19:01:00,29.0,20.0,-100.00,SW,235,22.0,29.0,68,-99.99,,,-99.99,,2013-04-23 01:01:00,
2013-04-22 19:11:00,29.0,20.0,-100.00,SW,235,22.0,29.0,68,-99.99,,,-99.99,,2013-04-23 01:11:00,
2013-04-22 19:21:00,28.0,19.0,-100.00,SW,235,19.0,28.0,68,-99.99,,,-99.99,,2013-04-23 01:21:00,
2013-04-22 19:32:00,28.0,19.0,-100.00,SW,235,20.0,25.0,67,-99.99,,,-99.99,,2013-04-23 01:32:00,
2013-04-22 19:42:00,28.0,19.0,-100.00,SW,235,14.0,24.0,68,-99.99,,,-99.99,,2013-04-23 01:42:00,
2013-04-22 19:52:00,28.0,20.0,-100.00,WSW,240,17.0,21.0,69,-99.99,,,-99.99,,2013-04-23 01:52:00,
2013-04-22 20:02:00,28.0,20.0,-100.00,WSW,240,17.0,22.0,70,-99.99,,,-99.99,,2013-04-23 02:02:00,
2013-04-22 20:12:00,28.0,20.0,-100.00,WSW,240,16.0,23.0,70,-99.99,,,-99.99,,2013-04-23 02:12:00,
2013-04-22 20:21:00,28.0,20.0,-100.00,WSW,245,17.0,25.0,71,-99.99,,,-99.99,,2013-04-23 02:21:00,
2013-04-22 20:32:00,28.0,20.0,-100.00,WSW,250,21.0,27.0,72,-99.99,,,-99.99,,2013-04-23 02:32:00,
2013-04-22 20:42:00,27.0,20.0,-100.00,WSW,250,21.0,27.0,72,-99.99,,,-99.99,,2013-04-23 02:42:00,
2013-04-22 20:52:00,27.0,20.0,-100.00,WSW,255,19.0,22.0,73,-99.99,,,-99.99,,2013-04-23 02:52:00,
2013-04-22 21:01:00,27.0,20.0,-100.00,WSW,250,20.0,24.0,72,-99.99,,,-99.99,,2013-04-23 03:01:00,
2013-04-22 21:11:00,27.0,20.0,-100.00,WSW,250,20.0,24.0,72,-99.99,,,-99.99,,2013-04-23 03:11:00,
2013-04-22 21:21:00,27.0,20.0,-100.00,WSW,250,20.0,24.0,72,-99.99,,,-99.99,,2013-04-23 03:21:00,
2013-04-22 21:33:00,27.0,20.0,-100.00,WSW,255,17.0,27.0,74,-99.99,,,-99.99,,2013-04-23 03:33:00,
2013-04-22 21:43:00,27.0,20.0,-100.00,WSW,255,17.0,27.0,74,-99.99,,,-99.99,,2013-04-23 03:43:00,
2013-04-22 21:53:00,27.0,20.0,-100.00,WSW,255,17.0,27.0,74,-99.99,,,-99.99,,2013-04-23 03:53:00,
2013-04-22 22:03:00,26.0,20.0,-100.00,WSW,255,19.0,24.0,74,-99.99,,,-99.99,,2013-04-23 04:03:00,
2013-04-22 22:12:00,26.0,20.0,-100.00,West,265,20.0,25.0,76,-99.99,,,-99.99,,2013-04-23 04:12:00,
2013-04-22 22:23:00,26.0,19.0,-100.00,West,265,19.0,27.0,75,-99.99,,,-99.99,,2013-04-23 04:23:00,
2013-04-22 22:33:00,26.0,19.0,-100.00,West,260,17.0,24.0,74,-99.99,,,-99.99,,2013-04-23 04:33:00,
2013-04-22 22:43:00,26.0,19.0,-100.00,West,265,14.0,20.0,76,-99.99,,,-99.99,,2013-04-23 04:43:00,
2013-04-22 22:53:00,25.0,20.0,-100.00,West,275,14.0,18.0,79,-99.99,,,-99.99,,2013-04-23 04:53:00,
2013-04-22 23:02:00,25.0,20.0,-100.00,West,275,14.0,18.0,79,-99.99,,,-99.99,,2013-04-23 05:02:00,
2013-04-22 23:12:00,25.0,20.0,-100.00,West,275,14.0,18.0,79,-99.99,,,-99.99,,2013-04-23 05:12:00,
2013-04-22 23:22:00,25.0,21.0,-100.00,WNW,295,12.0,19.0,83,-99.99,,,-99.99,,2013-04-23 05:22:00,
2013-04-22 23:32:00,25.0,21.0,-100.00,WNW,295,16.0,21.0,84,-99.99,,,-99.99,,2013-04-23 05:32:00,
2013-04-22 23:42:00,25.0,21.0,-100.00,WNW,300,15.0,19.0,85,-99.99,,,-99.99,,2013-04-23 05:42:00,
2013-04-22 23:52:00,25.0,21.0,-100.00,NW,310,13.0,17.0,87,-99.99,,,-99.99,,2013-04-23 05:52:00,